www.pogodaiklimat.ru

Погода и климат >> Архив погоды >> Гана >> Saltpond


ПОГОДА в Saltpond

  • Прогноз погоды в Saltpond
  • Монитор погоды в Saltpond
  • Климат города

АРХИВ ПОГОДЫ в Saltpond

Время (UTC), дата Ветер
(напр.,м/с)
 
Видим.   Явления Облачность Т
(С)
Тd
(С)
f
(%)
Тe
(С)
Тes
(С)
Комфортность P
(гПа)
Po
(гПа)
Тmin
(С)
Tmax
(С)
R
(мм)
R24
(мм)
S
(см)
00 15.10 ЮЗ 2 16 км 6/6 330 м
[Sc]
+25.2 +21 +21 комфорт 1012.6 1013.0
03 15.10 штиль 0 14 км в посл. час дождь 9/6 330 м
[Sc Ac trans]
+25.3 +24.6 96 +36 +36 очень
душно
1011.6 1012.0
06 15.10 СЗ 1 16 км {дождь} 5/1 330 м
[Sc Ac trans Ci sp]
+24.5 +24.2 98 +34 +34 очень
душно
1012.3 1012.0 +24.0 5
09 15.10 ЮЗ 1 18 км 5/5 360 м
[Cb cap Ac trans]
+28.0 +25.7 87 +41 +47 опасность
перегрева
1014.4 1014.0
12 15.10 ЮЗ 3 20 км 4/4 480 м
[Cu med, cong Ac trans]
+29.9 +26.2 81 +46 +57 опасность
перегрева
1013.1 1013.0
15 15.10 ЮЗ 3 20 км 1/1 480 м
[Cb cap Ac cuf]
+29.7 +26.4 82 +45 +54 опасность
перегрева
1010.3 1010.0
18 15.10 С 1 18 км 9/8 330 м
[Cb cap Ac trans]
+25.5 +22.7 85 +34 +34 очень
душно
1011.7 1012.0 +29.9
21 15.10 СЗ 1 16 км 9/6 330 м
[Sc Cs]
+24.0 +22.5 91 +31 +31 очень
душно
1013.3 1013.0
00 16.10 ЮЗ 1 16 км 8/4 330 м
[Sc Cs]
+23.8 +22.7 94 +31 +31 очень
душно
1013.1 1013.0
06 16.10 штиль 0 16 км 5/1 330 м
[Cb cap Ac trans Ci sp]
+22.5 +21.8 96 +30 +30 очень
душно
1013.0 1013.0 +22.0
09 16.10 ЮЗ 2 18 км 8/6 330 м
[Cu Sc Ci sp]
+28.0 +25.3 85 +41 +45 опасность
перегрева
1014.9 1015.0
12 16.10 ЮЗ 2 20 км 5/4 480 м
[Cu med, cong Ci sp]
+30.0 +26.0 79 +45 +57 опасность
перегрева
1013.7 1014.0
00 17.10 штиль 0 8000 м гроза, ливневой дождь 9/4 330 м
[Cb cap Ac As]
+26.2 +25.1 94 +38 +38 очень
душно
1014.0 1014.0 0.0
03 17.10 СВ 1 14 км гроза без осадков {дождь} 9/3 900 м
[Cb cap Ac trans Cs]
+25.2 +24.4 95 +35 +35 очень
душно
1012.2 1012.0
06 17.10 штиль 0 8000 м {гроза, дождь} 9/0
[Ac As]
+24.9 +24.4 97 +35 +35 очень
душно
1013.1 1013.0 +24.4 0.1
09 17.10 СЗ 2 16 км 6/4 330 м
[Cu Sc Ac trans Ci sp]
+27.8 +25.5 87 +41 +46 опасность
перегрева
1013.0 1013.0
12 17.10 ЮЗ 2 20 км 5/4 360 м
[Cu Sc Ac trans Ci sp]
+30.0 +26.0 79 +45 +57 опасность
перегрева
1012.0 1012.0
15 17.10 ЮЗ 3 20 км 4/4 360 м
[Cu Sc Ac trans Ci sp]
+29.6 +26.2 82 +45 +51 опасность
перегрева
1010.2 1010.0
18 17.10 ЮЗ 3 18 км 8/4 330 м
[Cb cap Ac trans Cs]
+28.6 +24.8 80 +41 +41 опасность
перегрева
1011.4 1011.0 +30.2
21 17.10 ЮЗ 2 18 км 6/6 330 м
[Sc]
+27.0 +25.1 89 +39 +39 очень
душно
1013.1 1013.0
00 18.10 штиль 0 12 км 5/5 330 м
[Sc]
+26.0 +22.6 82 +34 +34 очень
душно
1012.7 1013.0
03 18.10 штиль 0 18 км 6/6 330 м
[Sc]
+25.0 +24.3 96 +35 +35 очень
душно
1010.9 1011.0
06 18.10 штиль 0 18 км 8/8 330 м
[Sc Ci sp]
+24.5 +23.8 96 +33 +33 очень
душно
1011.7 1012.0 +24.0
09 18.10 ЮЗ 1 20 км 4/4 480 м
[Cu med, cong]
+28.2 +26.3 89 +43 +49 опасность
перегрева
1012.6 1013.0
12 18.10 ЮЗ 2 20 км 3/3 480 м
[Cu med, cong Ci sp]
+30.1 +26.0 79 +45 +59 опасность
перегрева
1011.3 1011.0
15 18.10 ЮЗ 3 20 км 5/3 480 м
[Cu med, cong Ci sp]
+29.5 +26.0 81 +44 +50 опасность
перегрева
1009.1 1009.0
21 18.10 ЮЗ 2 16 км 4/4 330 м
[Sc]
+27.4 +25.1 87 +39 +39 очень
душно
1011.4 1011.0
00 19.10 ЮЗ 2 16 км 5/5 330 м
[Sc]
+27.0 +25.0 89 +39 +39 очень
душно
1011.3 1011.0
03 19.10 СЗ 1 16 км 3/3 330 м
[Sc]
+25.3 +24.3 94 +35 +35 очень
душно
1009.7 1010.0
06 19.10 штиль 0 16 км 8/4 330 м
[Sc Ac trans Cs]
+24.6 +23.9 96 +34 +34 очень
душно
1010.2 1010.0 +24.3
03 20.10 штиль 0 16 км 4/4 330 м
[Sc]
+25.0 +24.2 95 +34 +34 очень
душно
1009.2 1009.0
06 20.10 штиль 0 16 км 5/1 330 м
[Sc Ci sp]
+24.5 +23.8 96 +33 +33 очень
душно
1009.6 1010.0 +23.0
09 20.10 ЮЗ 1 18 км 5/4 330 м
[Cu Sc Ci sp]
+29.0 +25.4 81 +43 +50 опасность
перегрева
1011.3 1011.0
12 20.10 ЮЗ 2 20 км 4/4 480 м
[Cu med, cong]
+31.0 +25.7 73 +46 +58 опасность
перегрева
1010.2 1010.0
18 20.10 ЮЗ 3 18 км 5/5 330 м
[Cb cap]
+28.0 +25.3 85 +41 +41 опасность
перегрева
1008.3 1008.0 +30.7
00 21.10 ЮЗ 2 14 км 9/1 330 м
[Sc Cs]
+27.1 +24.9 88 +39 +39 очень
душно
1010.3 1010.0
03 21.10 СЗ 1 17 км 9/1 330 м
[Sc Ac trans Cs]
+25.5 +24.3 93 +35 +35 очень
душно
1008.8 1009.0

 

Местоположение метеостанции Saltpond (Гана): широта 5.20 долгота -1.07 высота над уровнем моря 47 м.

В архиве по умолчанию представлена погода в Saltpond за последнюю неделю. Архивные данные за месяц целиком и за предыдущие месяцы, начиная с января 2011 года, Вы можете получить, выбрав интересующий диапазон дат из раскрывающегося списка и нажав кнопку "Ввод!".


*Определитесь, кто Вы:
робот инопланетянин человек

Внимание! Время в таблицах - всемирное. Для получения местного времени необходимо прибавить поправку, которая в Saltpond равна 1 ч.

Смотрите также архив погоды в соседних городах и на ближайших метеорологических станциях:

Погода в Akim Oda (Гана) (82 км)
Погода в Takoradi (Гана) (85 км)
Погода в Accra (Гана) (109 км)
Погода в Tema (Гана) (127 км)
Погода в Koforidua (Гана) (133 км)
Погода в Axim (Гана) (134 км)
Погода в Akuse (Гана) (165 км)
Погода в Abetifi (Гана) (167 км)
Погода в Sefwi Bekwai (Гана) (178 км)
Погода в Kumasi (Гана) (179 км)

Пояснения к столбцам:

Ветер - указаны скорость ветра в м/с - средняя за 10 мин, порывы в срок и между сроками (в фигурных скобках) и направление, откуда дует ветер: С - северный, СВ - северо-восточный, В - восточный, ЮВ - юго-восточный, Ю - южный, ЮЗ - юго-западный, З - западный, СЗ - северо-западный.
Видимость - горизонтальная дальность видимости в метрах или километрах. При видимости от 1 до 10 км при отсутствии осадков обычно наблюдается дымка, при ухудшении видимости до 1 км и менее - туман. В сухую погоду видимость может ухудшаться дымом, пылью или мглою.
Явления - указаны атмосферные явления, наблюдавшиеся в срок или в последний час перед сроком; фигурными скобками обозначены явления, наблюдавшиеся между сроками (за 1-3 часа до срока); квадратными скобками обозначены град или гололедные отложения с указанием их диаметра в мм.
Облачность - указаны через наклонную черту общая и нижняя облачность в баллах и высота нижней границы облаков в метрах; квадратными скобками обозначены формы облаков: Ci - перистые, Cs - перисто-слоистые, Cc - перисто-кучевые, Ac - высококучевые, As - высокослоистые, Sc - слоисто-кучевые, Ns - слоисто-дождевые, Cu - кучевые, Cb - кучево-дождевые. Подробнее классификацию облаков см. в Атласе облаков (PDF).
T - Температура воздуха - температура, измеренная на высоте 2 м над землей.
Td - Температура точки росы - температура, при понижении до которой содержащийся в воздухе водяной пар достигнет насыщения.
f - Относительная влажность воздуха - влажноcть воздуха, измеренная на высоте 2 м над землей.
Te - Эффективная температура - температура, которую ощущает одетый по сезону человек в тени. Характеристика душности погоды. При расчете учитывается влияние влажности воздуха и скорости ветра на теплоощущения человека.
Tes - Эффективная температура на солнце - температура, которую ощущает человек, с поправкой на солнечный нагрев. Характеристика знойности погоды. Зависит от высоты солнца над горизонтом, облачности и скорости ветра. Ночью, в пасмурную погоду, а также при ветре 12 м/с и более поправка равна нулю.
P - Атмосферное давление - приведенное к уровню моря атмосферное давление.
Po - Атмосферное давление - измеренное на уровне метеостанции атмосферное давление.
Tmin - Минимальная температура - минимум температуры воздуха на высоте 2 м над землей.
Tmax - Максимальная температура - максимум температуры воздуха на высоте 2 м над землей.
R - Количество осадков - Количество выпавших осадков за период времени, мм. При наведении курсора мыши на число - период времени, за который выпало указанное количество осадков.
R24 - Количество осадков - Количество выпавших осадков за 24 часа, мм.
S - Снежный покров - Высота снежного покрова, см. При наведении курсора мыши на число - состояние снежного покрова и степень покрытия местности в баллах.